Tracking 17155 objects as of 30-July-2015
HD Live streaming from Space Station

SCOUT X-4 R/B

Track SCOUT X-4 R/B now!
10-day predictions
SCOUT X-4 R/B is classified as:


NORAD ID: 1739
Int'l Code: 1965-093B
Perigee: 665.2 km
Apogee: 793.9 km
Inclination: 59.7 °
Period: 99.2 minutes
Semi major axis: 7100 km
RCS: 0.5409 m2 (medium)
Launch date: November 19, 1965
Source: United States (US)

Note: This is a ROCKET BODY
Your satellite tracking list
Your tracking list is empty





NASA's NSSDC Master Catalog

Two Line Element Set (TLE):
1 01739U 65093B   15211.23073363  .00000046  00000-0  50078-4 0  9994
2 01739 059.7050 283.9897 0090619 150.8921 209.7216 14.50989256613775

Source of the keplerian elements: AFSPC

N2YO: 279